User: anonymous   Login
Location: Berg
(47.2344°N, 9.5296°E)
Time: 00:23:47
(UTC+00:00)
Language:

ISS - Orbit

View from above orbital plane
View from above orbital plane
View from above satellite
View from above satellite

Ground track
Ground track

The orbit data is extracted from the following two-line orbital elements,

1 25544U 98067A   21104.81309984  .00000014  00000-0  84403-5 0  9999
2 25544  51.6432 296.1805 0002850 228.4893 236.1684 15.48882184278775
Epoch (UTC): 14 April 2021 19:30:51
Eccentricity: 0.0002850
inclination: 51.6432°
perigee height: 418 km
apogee height: 422 km
right ascension of ascending node: 296.1805°
argument of perigee: 228.4893°
revolutions per day: 15.48882184
mean anomaly at epoch: 236.1684°
orbit number at epoch: 27877

The dashed part of the orbit path shows where the satellite is in the earth's shadow,  

DLR